W8KJR Weather Reports


time (UTC)temp
F
wind
direction
speed
knots
gust
knots
rain 1hr
in
rain 24hr
in
rain mn
in
humidity
%
barometer
mb
20260504130400 58 312 0.0 0.9 0.00 0.00 0.00 65 1006.5
20260504110340 50 348 0.0 1.7 0.00 0.00 0.00 73 1006.6
20260504100326 51 46 0.0 3.5 0.00 0.00 0.00 70 1006.8
20260504081806 51 121 0.0 0.9 0.00 0.00 0.00 69 1007.6
20260504080301 51 91 0.0 0.9 0.00 0.00 0.00 68 1007.4
20260504070252 52 94 0.0 0.0 0.00 0.00 0.00 66 1008.2
20260504060241 53 124 0.0 0.9 0.00 0.00 0.00 62 1008.7
20260504050229 52 104 0.0 0.0 0.00 0.00 0.00 65 1009.8
20260504044725 51 123 0.0 0.0 0.00 0.00 0.00 68 1009.8
20260504043222 51 110 0.0 0.0 0.00 0.00 0.00 69 1009.8
20260504041718 51 353 0.0 0.0 0.00 0.00 0.00 70 1010.0
20260504040213 51 140 0.0 0.9 0.00 0.00 0.00 71 1010.1
20260504034710 50 125 0.9 0.9 0.00 0.00 0.00 72 1010.2
20260504033208 50 74 0.0 1.7 0.00 0.00 0.00 73 1010.2
20260504031705 50 139 0.0 0.9 0.00 0.00 0.00 73 1010.6
20260504030201 49 110 0.0 0.9 0.00 0.00 0.00 74 1010.5
20260504024657 49 24 0.0 0.9 0.00 0.00 0.00 74 1010.6
20260504023158 49 140 0.9 1.7 0.00 0.00 0.00 75 1010.7
20260504021654 49 147 0.9 1.7 0.00 0.00 0.00 74 1010.8
20260504020149 49 95 0.0 0.9 0.00 0.00 0.00 75 1010.9
20260504014650 50 118 0.0 0.9 0.00 0.00 0.00 74 1010.9
20260504013148 50 123 0.0 0.0 0.00 0.00 0.00 73 1010.9
20260504011645 50 105 0.0 0.0 0.00 0.00 0.00 73 1011.1
20260504010145 51 82 0.0 0.0 0.00 0.00 0.00 72 1011.0
20260504004643 51 129 0.0 0.0 0.00 0.00 0.00 71 1011.0
20260504003139 51 128 0.0 0.0 0.00 0.00 0.00 71 1011.2
20260504001637 51 110 0.9 0.9 0.00 0.00 0.00 69 1011.2
20260504000133 52 106 0.0 0.0 0.00 0.00 0.00 68 1011.1
20260503234631 52 207 0.0 0.0 0.00 0.00 0.00 67 1011.3
20260503233127 52 7 0.0 2.6 0.00 0.00 0.00 66 1011.8
20260503231626 53 104 0.0 0.9 0.00 0.00 0.00 65 1011.9
20260503230122 54 103 0.9 1.7 0.00 0.00 0.00 64 1012.0
20260503224622 54 315 2.6 2.6 0.00 0.00 0.00 63 1012.0
20260503223120 56 109 0.0 1.7 0.00 0.00 0.00 60 1011.8
20260503221619 57 91 1.7 3.5 0.00 0.00 0.00 59 1011.7
20260503220115 60 94 0.9 1.7 0.00 0.00 0.00 42 1011.4
20260503214613 61 328 2.6 3.5 0.00 0.00 0.00 40 1011.4
20260503213110 60 89 0.9 5.2 0.00 0.00 0.00 41 1011.5
20260503211608 61 285 3.5 5.2 0.00 0.00 0.00 41 1011.6
20260503204558 61 251 0.9 1.7 0.00 0.00 0.00 42 1011.7
20260503203055 62 92 1.7 2.6 0.00 0.00 0.00 39 1012.1
20260503201554 64 167 0.9 5.2 0.00 0.00 0.00 38 1012.1
20260503200050 62 130 1.7 2.6 0.00 0.00 0.00 39 1012.5
20260503194547 63 175 0.9 1.7 0.00 0.00 0.00 37 1012.7
20260503193044 63 133 1.7 2.6 0.00 0.00 0.00 37 1012.5
20260503191539 63 310 0.9 1.7 0.00 0.00 0.00 38 1013.0
20260503190036 63 157 3.5 7.0 0.00 0.00 0.00 37 1013.5
20260503184534 63 273 0.9 0.9 0.00 0.00 0.00 39 1013.3
20260503183031 62 75 2.6 7.0 0.00 0.00 0.00 41 1013.6
20260503181529 63 295 0.0 2.6 0.00 0.00 0.00 40 1013.7
20260503180026 63 39 2.6 3.5 0.00 0.00 0.00 39 1013.9
20260503174524 63 276 1.7 2.6 0.00 0.00 0.00 39 1013.9
20260503173023 62 298 3.5 5.2 0.00 0.00 0.00 41 1014.1
20260503171520 0 0.0 0.0 0.00 0.00 0.00 1014.3